TimePST,TemperatureF,Dew PointF,Humidity,Sea Level PressureIn,VisibilityMPH,Wind Direction,Wind SpeedMPH,Gust SpeedMPH,PrecipitationIn,Events,Conditions,WindDirDegrees,DateUTC
12:50 AM,25.0,24.1,96,30.28,15.0,NE,2.3,-,N/A,,Partly Cloudy,50,2013-02-12 08:50:00
1:50 AM,24.3,23.7,98,30.29,15.0,NNE,3.5,-,N/A,,Partly Cloudy,30,2013-02-12 09:50:00
2:50 AM,26.4,25.9,98,30.29,15.0,SE,2.3,-,N/A,,Mostly Cloudy,130,2013-02-12 10:50:00
3:50 AM,29.1,28.2,96,30.27,15.0,Calm,Calm,-,N/A,,Mostly Cloudy,0,2013-02-12 11:50:00
4:50 AM,28.2,27.7,98,30.28,15.0,NNE,3.5,-,N/A,,Mostly Cloudy,30,2013-02-12 12:50:00
5:50 AM,29.7,28.6,96,30.29,15.0,NNW,4.6,-,N/A,,Overcast,330,2013-02-12 13:50:00
6:50 AM,31.1,29.7,94,30.30,15.0,NNW,2.3,-,N/A,,Overcast,340,2013-02-12 14:50:00
7:50 AM,29.5,28.4,96,30.31,15.0,NW,3.5,-,N/A,,Overcast,310,2013-02-12 15:50:00
8:50 AM,34.7,31.6,89,30.32,15.0,NE,4.6,-,N/A,,Overcast,40,2013-02-12 16:50:00
9:50 AM,37.0,31.3,80,30.35,15.0,NNW,3.5,-,N/A,,Overcast,330,2013-02-12 17:50:00
10:50 AM,43.7,33.4,67,30.35,15.0,South,4.6,-,N/A,,Overcast,170,2013-02-12 18:50:00
11:50 AM,42.8,33.8,70,30.35,15.0,NNE,5.8,-,N/A,,Overcast,20,2013-02-12 19:50:00
12:50 PM,46.6,34.3,62,30.35,15.0,NNE,4.6,-,N/A,,Mostly Cloudy,20,2013-02-12 20:50:00
1:50 PM,49.6,33.4,54,30.34,15.0,South,4.6,-,N/A,,Mostly Cloudy,190,2013-02-12 21:50:00
2:50 PM,53.1,33.1,47,30.32,15.0,SE,4.6,-,N/A,,Overcast,130,2013-02-12 22:50:00
3:50 PM,51.1,33.4,51,30.27,15.0,ESE,8.1,-,N/A,,Overcast,110,2013-02-12 23:50:00
4:50 PM,50.0,33.6,53,30.25,15.0,SSW,4.6,-,N/A,,Overcast,200,2013-02-13 00:50:00
5:50 PM,42.1,33.4,71,30.25,15.0,NW,6.9,-,N/A,,Overcast,310,2013-02-13 01:50:00
6:50 PM,42.1,33.6,72,30.25,15.0,NW,6.9,-,N/A,,Overcast,310,2013-02-13 02:50:00
10:50 PM,45.7,33.4,62,30.21,15.0,WSW,4.6,-,N/A,,Mostly Cloudy,250,2013-02-13 06:50:00
11:50 PM,49.3,36.0,60,30.19,15.0,SW,16.1,24.2,N/A,,Mostly Cloudy,230,2013-02-13 07:50:00